CZ-6A DEB

Satellite information

Favourite Embed

Satellite Type and Status

DEBRISIN ORBIT

Key statistics

Satellite CZ-6A DEB at a glance.

Uptime

1073

Days in orbit

Revolutions

≈ 15.2

Per day

Orbit

SSO

Sun Synchronous Orbit

Inclination

99.1

Latest

Satellite identification and parameters

Extended collection of information and parameters for CZ-6A DEB.

Object identification

Identified? True

Debris? True

Object name: CZ-6A DEB

International designator: 2022-151UC

Object number (NORAD): 54987

Object ID (CCSDS): 54987

Country: PEOPLES REPUBLIC OF CHINA (PRC)

Current information (Y/N): Y

RCS size: SMALL

Orbital parameters

Period: 95.032 minutes

Inclination: 99.0572 deg

SMA: 6898.26 km

Apoapsis: 555.544 km

Periapsis: 484.707 km

RAAN: 70.7484 deg

Eccentricy: 0.0051344

Argument of periapsis: 240.7147 deg

Mean anomaly: 118.8944 deg

Mean motion: 15.15281693 rev/day

Mean motion (dot): 0.00159192 rev/day2

B* drag term: 0.0080246406 1/REarth

Two-line elements (TLE)

Creation date: Oct. 17, 2025, 5:48 p.m.

Reference frame: TEME

Reference center: EARTH

Epoch: Oct. 16, 2025, 3:30 p.m. UTC

TLE line 0: 0 CZ-6A DEB

TLE line 1: 1 54987U 22151UC 25289.64587628 .00159192 00000-0 80246-2 0 9995

TLE line 2: 2 54987 99.0572 70.7484 0051344 240.7147 118.8944 15.15281693 84366

Live tracking on map

Real-time ground track for satellite CZ-6A DEB.

In-orbit conjunctions

A list of the most updated potential collisions computed for object CZ-6A DEB.

Target Orbit TCA Probability of collision Miss distance Type
ORBCOMM-X SSO 2024-09-04 14:44:31 0.0001509272 950.0 (m) PAYLOAD

Associated space launch

Chinese satellite reported for atmospheric/ocean/environmental/spatial parameter research purposes, details TBD.

CZ-6A DEB was lifted into orbit during the mission ‘Long March 6A | Yunhai 3’, on board a Long March 6A space rocket.

The launch took place on Nov. 11, 2022, 10:52 p.m. from Launch Complex 9A.

For more information about the launch, click the button.

Launch to space Long March 6A | Yunhai 3
Long March 6A | Yunhai 3

Agency: N/A

Status: Launch Successful

Launch date: Nov. 11, 2022, 10:52 p.m. UTC

Rocket: Long March 6A

Launch pad: Launch Complex 9A

Location: Taiyuan Satellite Launch Center, People's Republic of China

...

Latest news about this satellite

There are no fresh news available about this satellite. Check back as we update our databases every day.


Newsletter sign-up

Weekly statistics, charts and insights to help you stay on top of the space industry.